Home   Weather   Aix-en-Provence   Past weeks

Flag for France Past Weather in Aix-en-Provence, Provence-Alpes-Côte d'Azur, France — Yesterday and Last 2 Weeks

Now
37 °F

Clear.


Feels Like: 35 °F
Forecast: 27 / 51 °F
Wind: 3 mph from Southwest

Location: Marseille / Marignane

Current Time: Jan 20, 2017 at 11:02:02 am

Latest Report: Jan 20, 2017 at 10:00 am


Visibility: 6 mi

Pressure: 30.33 "Hg

Humidity: 75%

Dew Point: 30 °F

Location of Aix-en-ProvenceLocation

Past Weather in Aix-en-Provence — Graph

°F

Aix-en-Provence Temperature Yesterday

Maximum temperature yesterday: 46 °F (at 3:00 pm)
Minimum temperature yesterday: 23 °F (at 2:30 am)
Average temperature yesterday: 33 °F

High & Low Weather Summary for the Past Weeks

 TemperatureHumidityPressure
High57 °F (Jan 12, 2:00 pm)100% (Jan 11, 9:00 am)30.42 "Hg (Jan 11, 9:00 am)
Low21 °F (Jan 17, 7:30 am)35% (Jan 8, 6:00 am)29.74 "Hg (Jan 13, 7:30 am)
Average38 °F65%30.10 "Hg
* Reported Jan 5 9:00 am — Jan 20 9:30 am, Aix-en-Provence, Weather by CustomWeather, © 2017

Note: Actual official high and low records may vary slightly from our data, if they occured in-between our weather recording intervals... More about our weather records

Advertising

Aix-en-Provence Weather History for the Previous 24 Hours

Scroll right to see more
 ConditionsComfort  
Time TempWeatherWind HumidityBarometerVisibility
9:30 am
Fri, Jan 20
36 °FSunny.2 mph75%30.33 "Hg10 mi
9:00 am32 °FClear.2 mph80%30.33 "Hg5 mi
8:30 am30 °FClear.2 mph75%30.33 "Hg5 mi
8:00 am30 °FClear.No wind80%30.33 "Hg10 mi
7:30 am28 °FClear.1 mph86%30.33 "Hg10 mi
7:00 am30 °FClear.No wind86%30.30 "Hg4 mi
6:30 am28 °FPassing clouds.2 mph80%30.30 "Hg4 mi
6:00 am28 °FClear.1 mph86%30.30 "Hg4 mi
5:30 am30 °FClear.No wind80%30.30 "Hg4 mi
5:00 am30 °FClear.No wind80%30.30 "Hg4 mi
4:30 am28 °FPassing clouds.No wind86%30.30 "Hg4 mi
4:00 am28 °FClear.5 mph86%30.33 "Hg4 mi
3:30 am28 °FClear.3 mph86%30.33 "Hg4 mi
3:00 am30 °FClear.5 mph80%30.33 "Hg4 mi
2:30 am28 °FIce fog.3 mph86%30.33 "Hg3 mi
2:00 am32 °FClear.No wind80%30.30 "Hg4 mi
1:30 am32 °FClear.2 mph75%30.30 "Hg4 mi
1:00 am32 °FClear.2 mph80%30.30 "Hg4 mi
12:30 am32 °FClear.1 mph75%30.33 "Hg4 mi
12:00 am32 °FClear.2 mph75%30.33 "Hg4 mi
11:30 pm
Thu, Jan 19
32 °FIce fog.6 mph75%30.33 "Hg3 mi
11:00 pm36 °FClear.5 mph65%30.33 "Hg4 mi
10:30 pm36 °FClear.5 mph70%30.33 "Hg4 mi
10:00 pm36 °FHaze.2 mph70%30.33 "Hg3 mi
9:30 pm37 °FClear.3 mph70%30.30 "Hg4 mi
9:00 pm37 °FClear.3 mph65%30.30 "Hg4 mi
8:30 pm39 °FClear.3 mph61%30.30 "Hg4 mi
8:00 pm37 °FClear.5 mph65%30.30 "Hg4 mi
7:30 pm39 °FClear.8 mph61%30.30 "Hg4 mi
7:00 pm39 °FClear.3 mph61%30.27 "Hg4 mi
6:30 pm41 °FClear.5 mph57%30.27 "Hg10 mi
6:00 pm41 °FClear.3 mph61%30.27 "Hg10 mi
5:30 pm41 °FSunny.2 mph57%30.27 "Hg10 mi
5:00 pm43 °FLight rain. Clear.3 mph57%30.27 "HgN/A
4:30 pm43 °FSunny.3 mph53%30.27 "Hg10 mi
4:00 pm45 °FSunny.5 mph46%30.27 "Hg10 mi
3:30 pm46 °FSunny.2 mph46%30.27 "Hg10 mi
3:00 pm46 °FSunny.1 mph46%30.27 "Hg10 mi
2:30 pm45 °FSunny.No wind49%30.27 "Hg10 mi
2:00 pm45 °FSunny.3 mph49%30.27 "Hg10 mi
1:30 pm43 °FPassing clouds.3 mph53%30.27 "HgN/A
1:00 pm41 °FSunny.5 mph53%30.27 "Hg10 mi
12:30 pm41 °FClear.6 mph53%30.27 "Hg6 mi
12:00 pm39 °FSunny.2 mph56%30.30 "Hg10 mi
11:30 am37 °FClear.2 mph60%30.30 "Hg4 mi
11:00 am36 °FClear.3 mph65%30.30 "Hg4 mi
Weather by CustomWeather, © 2017

See weather overviewHow to use our weather pages